UND ROADS 2

导读

UND ROADS 2是美国于2025年6月23日成功发射的卫星,此次发射延续了美国在航天领域的活跃布局,依托成熟航天发射体系完成部署。该卫星名称中的“ROADS”指向其潜在的对地观测或交通基础设施监测任务,将为相关领域的空间数据获取、技术验证提供支撑,目前已进入预定轨道开展工作,进一步丰富了美国低轨卫星星座的应用场景,助力空间科技与地面应用的融合发展。

Basic Information
目录编号:
64549
目录名称:
UND ROADS 2
国际标识:
2025-135X
轨道中心:
EARTH
卫星名称:
UND ROADS 2
卫星全名:
UND ROADS 2
卫星状态:
在轨 (已飞行439 天)
发射日期:
2025-06-23 UTC
国别 :
美国 (US)
星等 :
--
Orbit Information
数据来源 国际轨道数据
星历时间: 2026-09-05T14:32:43+0800
8小时前
查看轨道信息
半长轴: 6869.81km
偏心率: 0.000201
轨道倾角: 97.485°
近地点辐角 132.576°
升交点赤经 4.314°
平近点角 227.564°
近地点: 490.292km
远地点: 493.054km
周期: 94.445分钟
每日圈数: 15.247048
Detailed Information
使用方式:
暂无
2D Orbit Map
3D Orbit Map
Orbit Altitude Analysis Chart
Orbit Inclination Analysis Chart
Orbit Comprehensive Analysis Chart
View Comprehensive Chart
Conjunction Data List
Event ID Objects TCA Miss Dist (km) Collision Risk Probability Collision Risk Index (CRI) Action
CDM_260906-090805-370306-454921
2026-09-06T
09:08:22+0000
0.612 km
远距离
1.212393E-4 高风险 0.77
CDM_260906-103105-323006-454921
2026-09-06T
10:31:12+0000
2.639 km
极远距离
1.084327E-6 低风险 0.36